KF6GPE Weather Reports


time (UTC)temp
C
wind
direction
speed
KPH
gust
KPH
rain 1hr
cm
rain 24hr
cm
rain mn
cm
humidity
%
barometer
mb
20260503212002 15 351 3.2 4.8 0.00 0.00 0.00 70 986.4
20260503211003 15 316 0.0 1.6 0.00 0.00 0.00 70 986.3
20260503210005 15 53 3.2 3.2 0.00 0.00 0.00 68 986.2
20260503205003 15 9 1.6 3.2 0.00 0.00 0.00 70 986.3
20260503204003 14 316 3.2 3.2 0.00 0.00 0.00 69 986.4
20260503203003 14 315 1.6 1.6 0.00 0.00 0.00 69 986.5
20260503202002 14 316 1.6 3.2 0.00 0.00 0.00 70 986.5
20260503201003 15 316 1.6 3.2 0.00 0.00 0.00 71 986.5
20260503200003 14 316 1.6 3.2 0.00 0.00 0.00 73 986.5
20260503195003 14 315 1.6 1.6 0.00 0.00 0.00 72 986.5
20260503194002 14 315 1.6 3.2 0.00 0.00 0.00 72 986.6
20260503193003 14 314 3.2 3.2 0.00 0.00 0.00 70 986.6
20260503192003 13 314 1.6 3.2 0.00 0.00 0.00 76 986.5
20260503191002 13 316 1.6 3.2 0.00 0.00 0.00 75 986.5
20260503190003 13 315 1.6 1.6 0.00 0.00 0.00 77 986.6
20260503185003 13 315 1.6 1.6 0.00 0.00 0.00 71 986.6
20260503184004 13 315 1.6 1.6 0.00 0.00 0.00 75 986.5
20260503183003 13 315 1.6 1.6 0.00 0.00 0.00 78 986.6
20260503182003 13 315 1.6 1.6 0.00 0.00 0.00 78 986.5
20260503181003 13 315 1.6 1.6 0.00 0.00 0.00 76 986.5
20260503180005 13 315 1.6 1.6 0.00 0.00 0.00 77 986.5
20260503175002 13 315 1.6 1.6 0.00 0.00 0.00 78 986.6
20260503174003 12 316 1.6 1.6 0.00 0.00 0.00 83 986.7
20260503173003 12 316 1.6 1.6 0.00 0.00 0.00 84 986.7
20260503172003 12 316 1.6 1.6 0.00 0.00 0.00 83 986.6
20260503171003 11 316 1.6 1.6 0.00 0.00 0.00 90 986.6
20260503151003 10 311 1.6 1.6 0.00 0.00 0.00 92 986.1
20260503131003 10 309 3.2 3.2 0.00 0.00 0.00 93 984.8
20260503081003 11 101 0.0 0.0 0.00 0.00 0.00 88 985.4
20260503072002 11 0 0.0 0.0 0.00 0.00 0.00 87 985.4
20260503071003 11 138 0.0 1.6 0.00 0.00 0.00 87 985.4
20260503055002 11 0 0.0 0.0 0.00 0.00 0.00 86 985.6
20260503054004 11 209 0.0 0.0 0.00 0.00 0.00 86 985.6
20260503053003 11 174 1.6 1.6 0.00 0.00 0.00 86 985.7
20260503052002 11 124 0.0 1.6 0.00 0.00 0.00 87 985.8
20260503051003 11 179 0.0 1.6 0.00 0.00 0.00 86 985.9
20260503050005 11 99 0.0 0.0 0.00 0.00 0.00 86 985.8
20260503045003 11 165 1.6 3.2 0.00 0.00 0.00 86 985.7
20260503044003 11 138 0.0 1.6 0.00 0.00 0.00 86 985.6
20260503043003 11 137 1.6 3.2 0.00 0.00 0.00 85 985.6
20260503042003 11 194 1.6 3.2 0.00 0.00 0.00 85 985.5
20260503041002 11 147 1.6 3.2 0.00 0.00 0.00 85 985.4
20260503040003 11 171 1.6 3.2 0.00 0.00 0.00 86 985.3
20260503035003 11 127 1.6 4.8 0.00 0.00 0.00 85 985.2
20260503034003 11 126 1.6 3.2 0.00 0.00 0.00 85 985.1
20260503033003 11 210 3.2 4.8 0.00 0.00 0.00 85 985.0
20260503032002 11 127 3.2 3.2 0.00 0.00 0.00 85 984.9
20260503031003 11 148 1.6 3.2 0.00 0.00 0.00 85 984.8
20260503030003 11 159 1.6 3.2 0.00 0.00 0.00 86 984.8
20260503025003 11 166 1.6 3.2 0.00 0.00 0.00 85 984.7
20260503024002 12 166 3.2 3.2 0.00 0.00 0.00 86 984.6
20260503023004 12 161 3.2 6.4 0.00 0.00 0.00 85 984.5
20260503022003 12 129 3.2 3.2 0.00 0.00 0.00 85 984.4
20260503021002 12 149 1.6 3.2 0.00 0.00 0.00 84 984.4
20260503020004 12 163 1.6 3.2 0.00 0.00 0.00 84 984.4
20260503015003 12 151 1.6 3.2 0.00 0.00 0.00 83 984.5
20260503014004 13 146 1.6 3.2 0.00 0.00 0.00 83 984.6
20260503013002 13 163 1.6 1.6 0.00 0.00 0.00 82 984.6
20260503012003 13 141 1.6 3.2 0.00 0.00 0.00 82 984.6
20260503011004 13 200 1.6 1.6 0.00 0.00 0.00 81 984.6
20260503010002 13 155 4.8 6.4 0.00 0.00 0.00 80 984.6
20260503005003 14 118 1.6 3.2 0.00 0.00 0.00 80 984.6
20260503004004 14 159 3.2 4.8 0.00 0.00 0.00 80 984.5
20260503003004 14 148 4.8 11.3 0.00 0.00 0.00 79 984.5
20260503002003 14 135 4.8 6.4 0.00 0.00 0.00 78 984.6
20260503001003 15 130 6.4 9.7 0.00 0.00 0.00 77 984.6
20260503000005 15 126 4.8 6.4 0.00 0.00 0.00 77 984.6
20260502235002 16 198 4.8 6.4 0.00 0.00 0.00 75 984.6
20260502234003 16 172 3.2 4.8 0.00 0.00 0.00 75 984.6
20260502233003 17 219 3.2 4.8 0.00 0.00 0.00 72 984.6
20260502232002 17 222 1.6 3.2 0.00 0.00 0.00 71 984.7
20260502231004 18 153 3.2 4.8 0.00 0.00 0.00 71 984.8
20260502230003 18 198 0.0 3.2 0.00 0.00 0.00 69 985.0
20260502225003 18 177 3.2 4.8 0.00 0.00 0.00 69 985.1
20260502224003 18 217 3.2 6.4 0.00 0.00 0.00 68 985.3
20260502223003 18 225 3.2 4.8 0.00 0.00 0.00 70 985.4
20260502222002 18 148 3.2 4.8 0.00 0.00 0.00 69 985.6
20260502221003 18 222 3.2 4.8 0.00 0.00 0.00 68 985.8
20260502220003 18 201 0.0 1.6 0.00 0.00 0.00 70 985.9
20260502215002 18 233 3.2 6.4 0.00 0.00 0.00 68 986.1
20260502214004 17 141 3.2 6.4 0.00 0.00 0.00 70 986.1
20260502213003 17 209 3.2 4.8 0.00 0.00 0.00 72 986.0